GW6498 Weather Reports


time (UTC)temp
C
wind
direction
speed
KPH
gust
KPH
rain 1hr
cm
rain 24hr
cm
rain mn
cm
humidity
%
barometer
mb
20260504080221 9 165 0.0 0.0 0.00 0.00 0.00 74 1003.4
20260504070148 11 231 4.8 6.4 0.00 0.00 0.00 66 1004.1
20260504060109 13 222 3.2 6.4 0.00 0.00 0.00 61 1004.9
20260504050537 14 236 6.4 11.3 0.00 0.00 0.00 57 1005.1
20260504045531 14 210 3.2 6.4 0.00 0.10 0.10 57 1005.0
20260504045026 14 258 9.7 11.3 0.00 0.10 0.10 57 1005.0
20260504044524 15 244 6.4 12.9 0.00 0.10 0.10 57 1005.0
20260504044021 15 248 4.8 11.3 0.00 0.10 0.10 57 1005.1
20260504043518 15 180 6.4 9.7 0.00 0.10 0.10 57 1005.0
20260504043015 15 177 4.8 12.9 0.00 0.10 0.10 57 1005.0
20260504042512 15 189 4.8 11.3 0.00 0.10 0.10 57 1005.0
20260504042009 15 210 6.4 11.3 0.00 0.10 0.10 57 1005.0
20260504041505 15 237 3.2 6.4 0.00 0.10 0.10 57 1004.9
20260504041001 15 239 6.4 9.7 0.00 0.10 0.10 57 1004.9
20260504040458 15 227 6.4 11.3 0.00 0.10 0.10 56 1004.9
20260504035954 15 231 6.4 14.5 0.00 0.10 0.10 55 1004.9
20260504035452 15 239 3.2 9.7 0.00 0.10 0.10 55 1004.8
20260504034948 16 188 11.3 12.9 0.00 0.10 0.10 54 1004.8
20260504034446 16 186 8.0 12.9 0.00 0.10 0.10 54 1004.8
20260504033943 15 194 11.3 16.1 0.00 0.10 0.10 54 1004.9
20260504033441 15 164 1.6 11.3 0.00 0.10 0.10 56 1004.8
20260504032938 15 163 4.8 12.9 0.00 0.10 0.10 58 1004.7
20260504032434 15 186 6.4 9.7 0.00 0.10 0.10 59 1004.9
20260504031931 15 185 8.0 9.7 0.00 0.10 0.10 59 1005.0
20260504031428 15 168 4.8 6.4 0.00 0.10 0.10 59 1004.9
20260504030925 15 181 4.8 9.7 0.00 0.10 0.10 59 1004.9
20260504030422 15 183 6.4 6.4 0.00 0.10 0.10 58 1004.9
20260504025918 15 149 1.6 4.8 0.00 0.10 0.10 57 1005.1
20260504025415 16 180 3.2 6.4 0.00 0.10 0.10 55 1004.9
20260504024912 16 184 4.8 6.4 0.00 0.10 0.10 53 1005.1
20260504024409 16 188 6.4 9.7 0.00 0.10 0.10 52 1004.9
20260504023906 16 175 1.6 6.4 0.00 0.10 0.10 52 1005.0
20260504023402 17 166 1.6 11.3 0.00 0.10 0.10 51 1004.9
20260504022857 17 216 6.4 12.9 0.00 0.10 0.10 51 1005.0
20260504022354 17 184 4.8 12.9 0.00 0.10 0.10 51 1004.9
20260504021851 17 198 3.2 12.9 0.00 0.10 0.10 51 1004.8
20260504021348 17 188 9.7 14.5 0.00 0.10 0.10 51 1005.0
20260504020845 17 183 3.2 11.3 0.00 0.10 0.10 51 1004.7
20260504020342 17 213 6.4 9.7 0.00 0.10 0.10 50 1004.7
20260504015838 17 230 4.8 11.3 0.00 0.10 0.10 50 1004.7
20260504015334 17 239 9.7 12.9 0.00 0.10 0.10 49 1004.6
20260504014831 17 192 8.0 12.9 0.00 0.10 0.10 49 1004.6
20260504014326 17 206 9.7 14.5 0.00 0.10 0.10 49 1004.6
20260504013825 17 183 8.0 16.1 0.00 0.10 0.10 48 1004.6
20260504013322 18 197 4.8 14.5 0.00 0.10 0.10 48 1004.5
20260504012819 18 226 9.7 14.5 0.00 0.10 0.10 47 1004.4
20260504012316 18 194 8.0 14.5 0.00 0.10 0.10 47 1004.5
20260504011814 18 213 9.7 16.1 0.00 0.10 0.10 46 1004.5
20260504011310 18 219 8.0 14.5 0.00 0.10 0.10 46 1004.5
20260504010806 18 225 9.7 16.1 0.00 0.10 0.10 45 1004.4
20260504010301 18 217 6.4 9.7 0.00 0.10 0.10 45 1004.5
20260504005759 18 201 12.9 14.5 0.00 0.10 0.10 45 1004.4
20260504005255 18 225 9.7 20.9 0.00 0.10 0.10 45 1004.4
20260504004753 18 226 3.2 14.5 0.00 0.10 0.10 45 1004.4
20260504004250 18 150 3.2 11.3 0.00 0.10 0.10 45 1004.3
20260504003747 18 252 8.0 12.9 0.00 0.10 0.10 44 1004.4
20260504003244 19 236 8.0 11.3 0.00 0.10 0.10 44 1004.5
20260504002740 19 194 3.2 9.7 0.00 0.10 0.10 44 1004.3
20260504002237 19 231 4.8 11.3 0.00 0.10 0.10 43 1004.5
20260504001735 20 184 4.8 9.7 0.00 0.10 0.10 43 1004.5
20260504001232 20 192 3.2 12.9 0.00 0.10 0.10 42 1004.4
20260504000728 20 216 8.0 11.3 0.00 0.10 0.10 41 1004.4
20260504000226 20 232 8.0 14.5 0.00 0.10 0.10 41 1004.4
20260503235724 20 242 8.0 11.3 0.00 0.10 0.10 41 1004.4
20260503235220 20 215 4.8 14.5 0.00 0.10 0.10 41 1004.3
20260503234718 20 115 6.4 11.3 0.00 0.10 0.10 41 1004.4
20260503234216 20 169 4.8 11.3 0.00 0.10 0.10 40 1004.4
20260503233713 20 247 6.4 14.5 0.00 0.10 0.10 39 1004.6
20260503233208 20 253 9.7 14.5 0.00 0.10 0.10 39 1004.6
20260503232705 21 248 4.8 14.5 0.00 0.10 0.10 40 1004.4
20260503232203 21 263 6.4 14.5 0.00 0.10 0.10 39 1004.5
20260503231701 21 168 4.8 11.3 0.00 0.10 0.10 39 1004.7
20260503231157 21 244 9.7 22.5 0.00 0.10 0.10 40 1004.7
20260503230654 21 199 8.0 14.5 0.00 0.10 0.10 39 1004.7
20260503230151 20 281 9.7 16.1 0.00 0.10 0.10 39 1004.8
20260503225648 20 251 8.0 20.9 0.00 0.10 0.10 39 1004.7
20260503225148 20 303 9.7 14.5 0.00 0.10 0.10 39 1004.8
20260503224646 21 251 16.1 22.5 0.00 0.10 0.10 38 1004.7
20260503224143 20 167 9.7 14.5 0.00 0.10 0.10 39 1004.8
20260503223641 20 117 6.4 17.7 0.00 0.10 0.10 39 1004.8
20260503223137 21 255 8.0 24.1 0.00 0.10 0.10 39 1004.8
20260503222635 21 252 8.0 16.1 0.00 0.10 0.10 39 1004.7
20260503222132 21 212 8.0 14.5 0.00 0.10 0.10 38 1004.9
20260503221631 21 230 8.0 14.5 0.00 0.10 0.10 39 1004.9
20260503221128 20 164 6.4 12.9 0.00 0.10 0.10 39 1004.8
20260503220624 21 255 11.3 17.7 0.00 0.10 0.10 39 1004.8
20260503220121 21 247 16.1 17.7 0.00 0.10 0.10 38 1004.9
20260503215618 21 275 16.1 29.0 0.00 0.10 0.10 38 1004.8
20260503215114 21 260 12.9 17.7 0.00 0.10 0.10 39 1004.8
20260503214614 20 261 6.4 27.4 0.00 0.10 0.10 38 1004.6
20260503214109 20 274 12.9 22.5 0.00 0.10 0.10 38 1004.9
20260503213608 20 198 20.9 35.4 0.00 0.10 0.10 38 1005.0
20260503213104 20 170 16.1 30.6 0.00 0.10 0.10 38 1005.0
20260503212601 21 243 11.3 24.1 0.00 0.10 0.10 38 1005.0
20260503212059 21 214 8.0 17.7 0.00 0.10 0.10 39 1005.1
20260503211556 20 230 16.1 22.5 0.00 0.10 0.10 39 1005.2
20260503211051 20 223 19.3 24.1 0.00 0.10 0.10 38 1005.4
20260503210548 20 212 17.7 24.1 0.00 0.10 0.10 39 1005.3
20260503210044 20 245 11.3 24.1 0.00 0.10 0.10 40 1005.5
20260503205541 19 219 20.9 29.0 0.00 0.10 0.10 40 1005.5
20260503205037 20 203 12.9 27.4 0.00 0.10 0.10 39 1005.4
20260503204534 20 274 11.3 27.4 0.00 0.10 0.10 40 1005.7
20260503204031 19 177 11.3 17.7 0.00 0.10 0.10 42 1006.0
20260503203528 19 235 12.9 33.8 0.00 0.10 0.10 40 1006.1
20260503203025 18 176 11.3 29.0 0.00 0.10 0.10 42 1006.2
20260503202523 18 198 24.1 35.4 0.00 0.10 0.10 40 1006.3
20260503202021 19 202 19.3 38.6 0.00 0.10 0.10 40 1006.4
20260503201519 19 207 17.7 25.7 0.00 0.10 0.10 39 1006.4
20260503201016 18 184 16.1 29.0 0.00 0.10 0.10 40 1006.7
20260503200512 18 200 14.5 25.7 0.00 0.10 0.10 40 1006.7
20260503200009 17 204 22.5 30.6 0.00 0.10 0.10 42 1006.7
20260503195506 17 190 25.7 30.6 0.00 0.10 0.10 41 1006.9
20260503195002 17 224 17.7 33.8 0.00 0.10 0.10 41 1007.2
20260503194500 17 207 17.7 27.4 0.00 0.10 0.10 41 1007.1
20260503193955 17 244 17.7 29.0 0.00 0.10 0.10 40 1007.3
20260503193451 17 218 11.3 38.6 0.00 0.10 0.10 42 1007.5
20260503192946 17 202 14.5 20.9 0.00 0.10 0.10 41 1007.5
20260503192443 17 205 16.1 37.0 0.00 0.10 0.10 40 1007.6
20260503191938 17 216 24.1 35.4 0.00 0.10 0.10 41 1007.3
20260503191436 17 190 11.3 24.1 0.00 0.10 0.10 42 1007.4
20260503190932 17 224 24.1 38.6 0.00 0.10 0.10 43 1007.5
20260503190430 17 213 14.5 25.7 0.00 0.10 0.10 46 1007.5
20260503185927 17 239 22.5 38.6 0.00 0.10 0.10 49 1007.5
20260503185423 16 235 20.9 29.0 0.00 0.10 0.10 50 1007.8
20260503184922 16 143 14.5 35.4 0.00 0.10 0.10 53 1007.9
20260503184419 16 223 22.5 38.6 0.00 0.10 0.10 53 1007.9
20260503183916 16 174 25.7 30.6 0.00 0.10 0.10 55 1007.7
20260503183412 15 156 17.7 30.6 0.00 0.10 0.10 57 1008.0
20260503182909 15 194 24.1 37.0 0.00 0.10 0.10 59 1007.9
20260503182409 15 179 24.1 40.2 0.00 0.10 0.10 60 1007.9
20260503181905 14 182 27.4 40.2 0.00 0.10 0.10 59 1008.1
20260503181402 14 190 22.5 41.8 0.00 0.10 0.10 62 1008.2
20260503180858 13 182 16.1 37.0 0.00 0.10 0.10 66 1008.3
20260503180356 13 176 25.7 40.2 0.00 0.10 0.10 64 1008.4
20260503175853 12 166 29.0 48.3 0.00 0.10 0.10 65 1008.4
20260503175351 12 161 27.4 37.0 0.00 0.10 0.10 65 1008.6
20260503174846 12 174 19.3 38.6 0.00 0.10 0.10 67 1008.7
20260503174345 12 186 24.1 30.6 0.00 0.10 0.10 66 1008.8
20260503173839 12 165 22.5 38.6 0.00 0.10 0.10 66 1009.1
20260503173336 12 158 17.7 33.8 0.00 0.10 0.10 66 1009.1
20260503172833 12 170 24.1 38.6 0.00 0.10 0.10 65 1009.4
20260503172331 12 167 20.9 33.8 0.00 0.10 0.10 67 1009.5
20260503171826 12 155 16.1 25.7 0.00 0.10 0.10 72 1009.3
20260503171323 11 170 24.1 38.6 0.00 0.10 0.10 71 1009.3
20260503170821 11 168 17.7 27.4 0.00 0.10 0.10 76 1009.6
20260503170317 10 176 20.9 24.1 0.00 0.10 0.10 75 1009.9
20260503150709 9 155 4.8 12.9 0.18 0.08 0.08 80 1012.2
20260503150205 9 190 6.4 14.5 0.23 0.05 0.05 78 1012.5
20260503140130 12 190 11.3 16.1 0.00 0.00 0.00 56 1012.2
20260503131059 10 267 9.7 16.1 0.00 0.00 0.00 56 1013.3
20260503130556 10 242 12.9 16.1 0.00 0.00 0.00 57 1013.1
20260503110447 8 191 6.4 14.5 0.00 0.00 0.00 57 1012.3
20260503090338 9 223 8.0 17.7 0.00 0.00 0.00 49 1012.8
20260503081306 8 198 9.7 16.1 0.00 0.00 0.00 47 1013.3
20260503080802 8 224 6.4 12.9 0.00 0.00 0.00 47 1013.3